Regional Weather Roundup
Issued by NWS

Home | Current Version | Previous Version | Graphics & Text | Print | Product List | Glossary On
Versions: 1 2 3 4 5 6 7 8 9 10 11 12 13 14 15 16 17 18 19 20 21 22 23 24 25 26 27 28 29 30 31 32 33 34 35 36 37 38 39 40 41 42 43 44 45 46 47 48 49 50
000
ASUS43 KFSD 172002
RWRSD

WEATHER ROUNDUP FOR SOUTH DAKOTA
NATIONAL WEATHER SERVICE SIOUX FALLS SD
300 PM CDT THU AUG 17 2017

NOTE: "FAIR" INDICATES FEW OR NO CLOUDS BELOW 12,000 FEET WITH NO
SIGNIFICANT WEATHER AND/OR OBSTRUCTIONS TO VISIBILITY.


SDZ001>005-009-010-012>017-172100-
NORTHWEST AND NORTH CENTRAL SOUTH DAKOTA

CITY           SKY/WX    TMP DP  RH WIND       PRES   REMARKS
BUFFALO          N/A     80  48  32 NW8       29.88R
FAITH            N/A     88  48  25 W10       29.86S
MOBRIDGE       SUNNY     82  55  39 SE13      29.84F
$$

SDZ012>016-024>037-041>051-057-063-072>074-172100-
SOUTHWEST AND SOUTH CENTRAL SOUTH DAKOTA

CITY           SKY/WX    TMP DP  RH WIND       PRES   REMARKS
RAPID CTY ARPT PTSUNNY   82  41  23 SW20G41   29.91R
PIERRE         SUNNY     86  51  29 SE16G23   29.84F
CUSTER         SUNNY     81  36  19 W12G18    30.06F
PHILIP         SUNNY     97  44  16 SW13G23   29.82F
PINE RIDGE     SUNNY     90  55  30 W9        29.93F
SPEARFISH      LGT RAIN  82  45  26 N10G18    29.98R
WINNER         FAIR      87  57  35 S12       29.90F
$$

SDZ004>011-016>023-039-040-172100-
NORTHEAST SOUTH DAKOTA

CITY           SKY/WX    TMP DP  RH WIND       PRES   REMARKS
ABERDEEN       SUNNY     80  54  40 NE6       29.88F
WATERTOWN      SUNNY     75  59  57 NW10      29.89S
BROOKINGS      SUNNY     75  62  64 NW14      29.89S
SISSETON         N/A     77  58  51 N13       29.85S
$$

SDZ017-020-022-023-036>040-048>070-172100-
SOUTHEAST SOUTH DAKOTA

CITY           SKY/WX    TMP DP  RH WIND       PRES   REMARKS
SIOUX FALLS    MOSUNNY   79  60  52 NW14      29.89S
HURON          SUNNY     80  58  46 NW3       29.89F
CHAMBERLAIN    SUNNY     83  60  45 SE6       29.90F
MITCHELL       SUNNY     81  59  47 CALM      29.90F
YANKTON        SUNNY     79  58  48 W10       29.91F
$$

ABBREVIATIONS USED IN REMARKS
   TC - TEMPERATURE IN CELSIUS
  WCI - WIND CHILL INDEX
   HX - HEAT INDEX
  VSB - VISIBILITY




USA.gov is the U.S. government's official web portal to all federal, state and local government web resources and services.